*** The Vicarage Weather Feed ***

NOAA NWS Hourly Roundups by Site

Regional Weather Roundup for Omaha, NE

To Select Another Site Choose from List

Select Site:  

000
ASUS43 KOAX 171310
RWRNE

WEATHER ROUNDUP FOR NEBRASKA
NATIONAL WEATHER SERVICE OMAHA NE
700 AM CST SUN FEB 17 2019

NOTES: SATELLITE DATA IS BEING USED TO AUGMENT CLOUD COVER ABOVE
       12000 FEET.
       "FAIR" INDICATES FEW OR NO CLOUDS BELOW 12,000 FEET WITH NO
       SIGNIFICANT WEATHER AND/OR OBSTRUCTIONS TO VISIBILITY.


NEZ001>004-019>022-054>056-171400-
NEBRASKA PANHANDLE

CITY           SKY/WX    TMP DP  RH WIND       PRES   REMARKS
SCOTTSBLUFF    CLOUDY    13   6  74 N17       29.87R WCI  -4
ALLIANCE       CLOUDY     7   2  80 N15       29.84R WCI -10
CHADRON        CLOUDY     6   2  83 NE3       29.94R FOG
GORDON         CLOUDY     6  -1  73 N18G25    29.87R WCI -13
KIMBALL        FAIR      14  12  89 N15       29.78R WCI  -1
SIDNEY         CLOUDY    15  11  83 N14       29.81R WCI   0
$$

NEZ057>060-069>072-079>082-171400-
SOUTHWEST NEBRASKA

CITY           SKY/WX    TMP DP  RH WIND       PRES   REMARKS
NORTH PLATTE   CLOUDY    13   5  70 N14       29.85R WCI  -2
IMPERIAL       FAIR       8   1  73 NW7       29.86R WCI  -3
LEXINGTON      CLOUDY    15   9  76 NW16      29.85R WCI  -1
MCCOOK         FAIR      13   6  74 NW18      29.86R WCI  -4
OGALLALA       FAIR       7   2  80 NW7       29.87R WCI  -5
$$

NEZ005>010-023>029-035>040-094-171400-
NORTH CENTRAL NEBRASKA

CITY           SKY/WX    TMP DP  RH WIND       PRES   REMARKS
VALENTINE      LGT SNOW  11   4  73 NW18G28   29.87R WCI  -7
AINSWORTH      LGT SNOW  10   8  88 NW15      29.85R WCI  -6
BROKEN BOW     FLURRIES  11   7  84 NW17      29.82R WCI  -6
O`NEILL        LGT SNOW  15  12  88 N9        29.84R WCI   3
ORD            FAIR      11   8  88 NW8       29.83R WCI  -1
THEDFORD       CLOUDY    10   6  82 NW14G21   29.85R WCI  -6
$$

NEZ041-046>049-061>064-073>077-083>087-171400-
SOUTH CENTRAL NEBRASKA

CITY           SKY/WX    TMP DP  RH WIND       PRES   REMARKS
GRAND ISLAND   LGT SNOW  10   7  87 W9        29.84R FOG     WCI  -3
AURORA         FLURRIES  14  11  90 NW9       29.83R WCI   1
HASTINGS       CLOUDY     6   3  87 W8        29.84R WCI  -7
HEBRON         FLURRIES  12   9  87 W8        29.86R WCI   0
HOLDREGE       CLOUDY    14  12  92 NW14G20   29.84R WCI  -1
KEARNEY        FLURRIES   2  -1  88 NW9       29.85R WCI -13
YORK           CLOUDY    16  12  86 NW8       29.83R WCI   5
$$

NEZ011>018-030>034-042>045-171400-
NORTHEAST NEBRASKA

CITY           SKY/WX    TMP DP  RH WIND       PRES   REMARKS
NORFOLK        LGT SNOW  15  12  88 NW8       29.83R FOG     WCI   4
ALBION         LGT SNOW  16  13  89 NW7       29.82R WCI   6
BLAIR          LGT SNOW  19  17  90 NW9       29.78S WCI   8
COLUMBUS       LGT SNOW  16  13  88 NW9       29.84R FOG     WCI   4
FREMONT        LGT SNOW  20  17  89 NW7       29.82S WCI  11
TEKAMAH        LGT SNOW  18  15  88 N14       29.82S FOG     WCI   4
WAYNE          FLURRIES  16  12  85 N9        29.84R WCI   4
$$

NEZ050>053-065>068-078-088>093-171400-
SOUTHEAST NEBRASKA

CITY           SKY/WX    TMP DP  RH WIND       PRES   REMARKS
LINCOLN        CLOUDY    17  13  84 NW7       29.83R WCI   8
OMAHA EPPLEY   LGT SNOW  20  15  81 NW9       29.81S WCI   9
BEATRICE       CLOUDY    18  15  88 NW9       29.82R WCI   6
FALLS CITY     CLOUDY    20  17  88 NW13      29.80R WCI   7
NEBRASKA CITY  LGT SNOW  19  16  89 N7        29.79R WCI   9
PLATTSMOUTH    FLURRIES  19  17  93 NW8       29.79R WCI   8
$$

NEZ044-045-051>053-067-171400-
OMAHA AREA

CITY           SKY/WX    TMP DP  RH WIND       PRES   REMARKS
OMAHA EPPLEY   LGT SNOW  20  15  81 NW9       29.81S WCI   9
BLAIR          LGT SNOW  19  17  90 NW9       29.78S WCI   8
FREMONT        LGT SNOW  20  17  89 NW7       29.82S WCI  11
MILLARD        LGT SNOW  20  17  88 NW6       29.81S WCI  13
OFFUTT AFB     FLURRIES  19  19 100 W9        29.79R WCI   8
PLATTSMOUTH    FLURRIES  19  17  93 NW8       29.79R WCI   8
WAHOO          LGT SNOW  17  15  93 NW9       29.81S WCI   5
$$


 

View Past Reports for Omaha, NE.

Products Courtesy of NOAA-NWS
NWS Information Parsing Script by Ken True at Saratoga Weather - Script by SE Lincoln Weather.

This data is offered only as a general guide to local weather conditions. It should not be relied upon in lieu of officially disseminated weather information for determining possible risk to persons or property. This site, including all information contained therein, is made available as is without warranties of any kind, either express or implied. The Vicarage Weather Feed© includes links to other sites for user convenience only. The content of any linked third-party site is not controlled by The Vicarage Weather Feed©. Access to any third-party website through The Vicarage Weather Feed©, regardless of whether or not the third-party site is a linked site, is entirely at the users own risk. Externally sourced content or material is excluded from The Vicarage Weather Feed© copyright and is the copyright and property of the respective provider. Skywarn® and the Skywarn® logo are registered trademarks of the National Oceanic and Atmospheric Administration, used with permission.